Hlavní strana
METAR-TAF:

METAR-TAF

Letiště :

Bogue_Field/MCALF

Swansboro, Severní Karolína, Spojené státy americké

zeměpisná šířka: 34-41-34N, zeměpisná délka: 077-01-46W, výška: 6 m

Aktuální stav počasí

Zpráva byla vytvořena před 21 minutami, v 08:57 UTC
Západní vítr 3 kt
Teplota 18°C
Vlhkost vzduchu 94%
Tlak 1015 hPa
Viditelnost: 6.4 km
Jasno
kouřmo

METAR: KNJM 300857Z AUTO 27003KT 4SM BR CLR 18/17 A2998 RMK AO2 SLP155 T01780167 53004 TSNO $

Čas: 05:18 (09:18 UTC)


TAF: chybějící

Stav a předpovědi počasí z více než 4 000 letišť (zprávy METAR a TAF).

Červené a žluté tečky na mapě představují dostupné meteorologické stanice.

Když kurzor umístíte na tečku, zobrazí se název stanice.

Pak kliknutím zobrazíte stav a předpověď počasí.

Chcete-li změnit mapu, kliknutím na zelené tlačítko se znaménkem +mapu přiblížíte, kliknutím na zelené tlačítko se znaménkem – mapu oddálíte a kliknutím na zelené šipky přejdete na sousední mapy.


METAR-TAF: